Regional Weather Roundup
Issued by NWS

Home | Current Version | Previous Version | Graphics & Text | Print | Product List | Glossary On
Versions: 1 2 3 4 5 6 7 8 9 10 11 12 13 14 15 16 17 18 19 20 21 22 23 24 25 26 27 28 29 30 31 32 33 34 35 36 37 38 39 40 41 42 43 44 45 46 47 48 49 50
000
ASUS43 KLOT 290601
RWRIL

ILLINOIS REGIONAL WEATHER ROUNDUP
NATIONAL WEATHER SERVICE CHICAGO/ROMEOVILLE IL
100 AM CDT WED JUL 29 2015

NOTE: "FAIR" INDICATES FEW OR NO CLOUDS BELOW 12,000 FEET WITH NO
SIGNIFICANT WEATHER AND/OR OBSTRUCTIONS TO VISIBILITY.

* THESE STATIONS ARE NOT UNDER NWS QUALITY CONTROL. THEY ALSO MAY NOT
  REPORT WEATHER SUCH AS PRECIPITATION OR FOG.

ILZ001-002-007-009-015-016-024-290700-
NORTHWEST ILLINOIS

CITY           SKY/WX    TMP DP  RH WIND       PRES   REMARKS
MOLINE         CLOUDY    77  74  90 CALM      29.91F
6HR MIN TEMP:  77; 6HR MAX TEMP:  85; 6HR PCP: TRACE;

STERLING*      CLOUDY    73  72  94 SE3       29.91F
$$

ILZ003-004-008-010-011-017-018-290700-
NORTH CENTRAL ILLINOIS

CITY           SKY/WX    TMP DP  RH WIND       PRES   REMARKS
ROCKFORD       CLOUDY    75  71  87 CALM      29.94F
6HR MIN TEMP:  75; 6HR MAX TEMP:  84;

$$

ILZ005-006-012>014-019>023-290700-
NORTHEAST ILLINOIS

CITY           SKY/WX    TMP DP  RH WIND       PRES   REMARKS
CHICAGO-OHARE  CLOUDY    79  73  82 CALM      29.92F HX  82
6HR MIN TEMP:  77; 6HR MAX TEMP:  87;

CHICAGO-MIDWAY CLOUDY    83  73  72 SE5       29.92F HX  89
6HR MIN TEMP:  83; 6HR MAX TEMP:  89;

AURORA         TSTM      75  70  84 W24       29.96F
6HR MIN TEMP:  76; 6HR MAX TEMP:  84; 6HR PCP: TRACE;

WAUKEGAN       CLOUDY    73  71  93 CALM      29.92F
6HR MIN TEMP:  70; 6HR MAX TEMP:  81;

DUPAGE AIRPORT CLOUDY    78  72  81 CALM      29.93F HX  80
6HR MIN TEMP:  75; 6HR MAX TEMP:  85;

WHEELING       LGT RAIN  80  73  79 CALM      29.93F HX  84
6HR MIN TEMP:  78; 6HR MAX TEMP:  87; 6HR PCP: TRACE;

NORTHERLY ISL    N/A     78  72  81 SE2         N/A  HX  80
$$

LMZ740>746-290700-
SOUTHERN LAKE MICHIGAN

STATION/POSITION SKY/WX   TEMP    WIND        PRES    VSBY  WAVE
                          AIR SEA DIR/SP/G                  HT/PER
                          (F)     (DEG/KT/KT) (MB)    (MI)  (FT/S)
HARRISON CRIB              82     190/  8/  9   N/A
BURNHAM HARBOR             81     170/  2/  5   N/A
CALUMET HARBOR             81     180/  2/  2   N/A
BURNS HARBOR               81     180/  2/  4 1014.9R
MICHIGAN CITY              80     130/  6/  7   N/A
MICHIGAN CITY 6N           77 76  180/  6/  6   N/A           0
ST. JOSEPH                 78 77  200/  6/  8   N/A           1
$$

ILZ025>027-034>036-040-047-049-050-058-095>099-290700-
WEST-CENTRAL ILLINOIS

CITY           SKY/WX    TMP DP  RH WIND       PRES   REMARKS
QUINCY         PTCLDY    80  78  94 W12G17    29.96R HX  88
$$

ILZ028>032-037-038-041>044-048-051>054-059>061-290700-
CENTRAL ILLINOIS

CITY           SKY/WX    TMP DP  RH WIND       PRES   REMARKS
DECATUR        CLEAR     75  72  90 CALM      29.95F
PEORIA         MOCLDY    80  72  76 N6        29.95F HX  84
6HR MIN TEMP:  80; 6HR MAX TEMP:  84;

SPRINGFIELD    PTCLDY    81  76  84 S3        29.94F HX  87
6HR MIN TEMP:  81; 6HR MAX TEMP:  87;

TAYLORVILLE    NOT AVBL
$$

ILZ033-039-045-046-055>057-062-063-290700-
EAST-CENTRAL ILLINOIS

CITY           SKY/WX    TMP DP  RH WIND       PRES   REMARKS
CHAMPAIGN      CLEAR     73  71  93 E5        29.96F
MATTOON        PTCLDY    77  69  76 S6        29.96F
$$

ILZ079-100>102-290700-
SOUTHWEST ILLINOIS

CITY           SKY/WX    TMP DP  RH WIND       PRES   REMARKS
CAHOKIA*       PTCLDY    80  76  87 S5        29.95F HX  86
SPARTA*        PTCLDY    78  76  93 CALM      29.99F HX  81
$$

ILZ064>066-069>071-074>076-080>082-084>086-088>090-092>094-290700-
SOUTH-CENTRAL ILLINOIS

CITY           SKY/WX    TMP DP  RH WIND       PRES   REMARKS
CARBONDALE     MOCLDY    77  72  84 S7        29.98S
6HR MIN TEMP:  77; 6HR MAX TEMP:  84; 6HR PCP:  0.15;

MT. VERNON     MOCLDY    77  70  78 CALM      29.98F
$$

ILZ067-068-072-073-078-083-087-091-290700-
SOUTHEAST ILLINOIS

CITY           SKY/WX    TMP DP  RH WIND       PRES   REMARKS
LAWRENCEVILLE  MOCLDY    76  74  93 S5        29.98S
$$

ABBREVIATIONS USED IN REMARKS
   TC - TEMPERATURE IN CELSIUS
  WCI - WIND CHILL INDEX
   HX - HEAT INDEX
  VSB - VISIBILITY
$$




USA.gov is the U.S. government's official web portal to all federal, state and local government web resources and services.